Showing default

COSMOS 449, 5552

Orbit data source: Space-Track

COSMOS 449, 5552 is a payload satellite owned by OKB-10 (CIS) in LEO that was launched on Wed, 13 Oct 1971 UTC via a KOSMOS 11K65M launch vehicle from the Plesetsk Missile And Space Complex (PKMTR). Payload-class satellites include a variety of spacecraft equipped with specific instruments for various scientific and technological missions. These include communications satellites like Starlink; space stations such as the ISS; scientific satellites like the Hubble; Earth observation satellites from companies like Planet Labs, Umbra, and HawkEye 360; GPS; miniature CubeSats for education and research; and military/defense satellites.

Loading next visibility...
Identifier
5552, 1971-086F
Orbit
LEO
Country
Flag of CISCIS
Related business
Manufacturer
OKB-10
Mission
Spacecraft
Bus & Motor
STRELA-1 11F625, Unknown motor
Mass
60 kg wet, 60 kg dry
Launch date (UTC)
1971-10-13 (55 years ago)
Launch vehicle
KOSMOS 11K65M
Launch site
Plesetsk Missile And Space Complex (PKMTR)
Object type
Payload
Rocket body
Debris
Shape & HBR
Unknown
Radar Cross Section
Medium (>0.1 m² and <1 m²)

Expand to show TLE details & history
Last TLE update: 2 days ago

TLE from 2 days ago
0 COSMOS 449
1  5552U 71086F   26171.47483041 -.00000018  00000-0 -20611-4 0  9992
2  5552  74.0254 170.4688 0037661 331.1515 102.4321 12.38733810472896
Epoch: 2026-06-20T11:23Z
TLE epoch observation values (Epoch: 2026-06-20T11:23:45.347Z)
Latitude
67.62808°
Longitude
134.63827°
Altitude
1,529.822 km
Speed
7.104 km/s
True Right ascension
14h 17m 03s
True Declination
67° 31' 07"
Sunlit
Object was in daylight at epoch
Visualization orbit readout
Latitude
Unknown
Longitude
Unknown
Altitude
Unknown
Speed
Unknown
Apparent Right ascension
Unknown
Apparent Declination
Unknown
Sunlit
N/A
Visualization observer readout
Local Sidereal Time
23:07:52
Azimuth
Unknown
Elevation
Unknown
Doppler factor
Unknown
Orbital elements
Apogee altitude
1,539.531 km
Perigee altitude
1,480.117 km
Semi-major axis
7,887.961 km
Eccentricity
0.00377
Inclination
74.0254°
RAAN
170.4688°
Arg. of periapsis
331.1515°
True anomaly
102.85311°
Mean anomaly
102.4321°
Eccentric anomaly
102.64265°
Mean motion
3.0981 °/min
Orbital period
116.2 mins
BSTAR
-0.000020611
Loading maneuver chart data...
Computing Atmospheric mass density...
Loading historical data...
Loading historical data...
Loading historical data...
Loading historical data...
Loading historical data...
Loading historical data...
Loading historical data...

Documentation

Showing up to 5 results
|